Overview Statistics Trail Chart Weather Telemetry Raw packets
 

This is the latest recevied weather packets stored in our database for station/object WC4PEM-1. If no packets are shown the sender has not sent any weather packets the latest 10 day(s).

<< 130 131 132 133 134 135 136 >>
Time Temp. Humidity Pressure Rain* Wind** Luminosity Snow
1787765107 33.33° C 58% 1016 hPa 0 mm - 990 W/m² -
1787764807 33.89° C 57% 1016.1 hPa 0 mm - 990 W/m² -
1787764507 33.89° C 58% 1016.1 hPa 0 mm - 239 W/m² -
1787764207 33.89° C 58% 1016.2 hPa 0 mm - 983 W/m² -
1787763907 34.44° C 57% 1016.2 hPa 0 mm - 963 W/m² -
1787763691 34.44° C 57% 1016.3 hPa 0 mm - 962 W/m² -
1787763607 34.44° C 57% 1016.3 hPa 0 mm - 962 W/m² -
1787763311 33.89° C 58% 1016.4 hPa 0 mm - 946 W/m² -
1787763007 33.33° C 58% 1016.4 hPa 0 mm - 919 W/m² -
1787762707 33.33° C 59% 1016.4 hPa 0 mm - 900 W/m² -
1787762507 33.33° C 61% 1016.5 hPa 0 mm - 891 W/m² -
1787762407 33.33° C 61% 1016.5 hPa 0 mm - 891 W/m² -
1787762107 32.78° C 62% 1016.5 hPa 0 mm - 886 W/m² -
1787761913 32.78° C 60% 1016.6 hPa 0 mm - 874 W/m² -
1787761807 32.78° C 60% 1016.6 hPa 0 mm - 874 W/m² -
1787761507 32.78° C 62% 1016.6 hPa 0 mm - 863 W/m² -
1787761314 32.78° C 60% 1016.6 hPa 0 mm - 858 W/m² -
1787761207 32.78° C 60% 1016.6 hPa 0 mm - 858 W/m² -
1787760907 32.22° C 64% 1016.6 hPa 0 mm - 856 W/m² -
1787760607 31.67° C 63% 1016.6 hPa 0 mm - 856 W/m² -
1787760307 31.67° C 64% 1016.7 hPa 0 mm - 842 W/m² -
1787760103 31.67° C 64% 1016.7 hPa 0 mm - 851 W/m² -
1787760007 31.67° C 64% 1016.7 hPa 0 mm - 851 W/m² -
1787759834 31.67° C 65% 1016.7 hPa 0 mm - 838 W/m² -
1787759707 31.67° C 65% 1016.7 hPa 0 mm - 838 W/m² -

* Rain latest hour (hover to see other rain measurements)
** Current wind speed in m/s (hover to see current wind gust speed)